Time,TemperatureF,DewpointF,PressureIn,WindDirection,WindDirectionDegrees,WindSpeedMPH,WindSpeedGustMPH,Humidity,HourlyPrecipIn,Conditions,Clouds,dailyrainin,SoftwareType,DateUTC
2013-12-01 00:00:00,45.7,37.9,30.17,West,280,0.0,0.0,74,0.00,,,0.00,Wunderground v.1.15,2013-12-01 08:00:00,
2013-12-01 00:10:00,45.7,37.9,30.17,West,280,0.0,0.0,74,0.00,,,0.00,Wunderground v.1.15,2013-12-01 08:10:00,
2013-12-01 00:20:00,45.5,37.3,30.17,West,280,0.0,0.0,73,0.00,,,0.00,Wunderground v.1.15,2013-12-01 08:20:00,
2013-12-01 00:30:00,45.1,37.0,30.17,West,280,0.0,0.0,73,0.00,,,0.00,Wunderground v.1.15,2013-12-01 08:30:00,
2013-12-01 00:40:00,44.6,36.1,30.17,West,280,0.0,0.0,72,0.00,,,0.00,Wunderground v.1.15,2013-12-01 08:40:00,
2013-12-01 00:50:00,43.6,35.2,30.17,West,280,0.0,0.0,72,0.00,,,0.00,Wunderground v.1.15,2013-12-01 08:50:00,
2013-12-01 01:00:00,42.8,34.7,30.17,West,280,0.0,0.0,73,0.00,,,0.00,Wunderground v.1.15,2013-12-01 09:00:00,
2013-12-01 01:10:00,42.3,34.3,30.17,West,280,0.0,0.0,73,0.00,,,0.00,Wunderground v.1.15,2013-12-01 09:10:00,
2013-12-01 01:20:00,41.9,33.9,30.17,West,280,0.0,0.0,73,0.00,,,0.00,Wunderground v.1.15,2013-12-01 09:20:00,
2013-12-01 01:30:00,41.6,33.6,30.17,West,280,0.0,0.0,73,0.00,,,0.00,Wunderground v.1.15,2013-12-01 09:30:00,
2013-12-01 01:40:00,41.3,33.6,30.17,West,280,0.0,0.0,74,0.00,,,0.00,Wunderground v.1.15,2013-12-01 09:40:00,
2013-12-01 01:50:00,41.2,33.5,30.17,West,280,0.0,0.0,74,0.00,,,0.00,Wunderground v.1.15,2013-12-01 09:50:00,
2013-12-01 02:00:00,41.2,33.9,30.17,West,280,0.0,0.0,75,0.00,,,0.00,Wunderground v.1.15,2013-12-01 10:00:00,
2013-12-01 02:10:00,41.2,33.9,30.17,West,280,0.0,0.0,75,0.00,,,0.00,Wunderground v.1.15,2013-12-01 10:10:00,
2013-12-01 02:20:00,41.2,34.2,30.17,West,280,0.0,0.0,76,0.00,,,0.00,Wunderground v.1.15,2013-12-01 10:20:00,
2013-12-01 02:30:00,41.3,34.6,30.17,West,280,0.0,0.0,77,0.00,,,0.00,Wunderground v.1.15,2013-12-01 10:30:00,
2013-12-01 02:40:00,41.6,35.2,30.17,West,280,0.0,0.0,78,0.00,,,0.00,Wunderground v.1.15,2013-12-01 10:40:00,
2013-12-01 02:50:00,41.9,35.5,30.17,West,280,0.0,0.0,78,0.00,,,0.00,Wunderground v.1.15,2013-12-01 10:50:00,
2013-12-01 03:00:00,41.9,35.9,30.17,West,280,0.0,0.0,79,0.00,,,0.00,Wunderground v.1.15,2013-12-01 11:00:00,
2013-12-01 03:10:00,41.8,35.8,30.17,West,280,0.0,0.0,79,0.00,,,0.00,Wunderground v.1.15,2013-12-01 11:10:00,
2013-12-01 03:20:00,41.6,35.6,30.17,West,280,0.0,0.0,79,0.00,,,0.00,Wunderground v.1.15,2013-12-01 11:20:00,
2013-12-01 03:30:00,41.3,35.3,30.17,West,280,0.0,0.0,79,0.00,,,0.00,Wunderground v.1.15,2013-12-01 11:30:00,
2013-12-01 03:40:00,41.1,35.1,30.17,West,280,0.0,0.0,79,0.00,,,0.00,Wunderground v.1.15,2013-12-01 11:40:00,
2013-12-01 03:50:00,40.9,34.9,30.16,West,280,0.0,0.0,79,0.00,,,0.00,Wunderground v.1.15,2013-12-01 11:50:00,
2013-12-01 04:00:00,40.9,34.9,30.16,West,280,0.0,0.0,79,0.00,,,0.00,Wunderground v.1.15,2013-12-01 12:00:00,
2013-12-01 04:10:00,41.1,35.4,30.16,West,280,0.0,0.0,80,0.00,,,0.00,Wunderground v.1.15,2013-12-01 12:10:00,
2013-12-01 04:20:00,41.1,35.4,30.17,West,280,0.0,0.0,80,0.00,,,0.00,Wunderground v.1.15,2013-12-01 12:20:00,
2013-12-01 04:30:00,40.9,35.2,30.17,West,280,0.0,0.0,80,0.00,,,0.00,Wunderground v.1.15,2013-12-01 12:30:00,
2013-12-01 04:40:00,40.9,35.2,30.17,West,280,0.0,0.0,80,0.00,,,0.00,Wunderground v.1.15,2013-12-01 12:40:00,
2013-12-01 04:50:00,40.2,34.2,30.18,West,280,0.0,0.0,79,0.00,,,0.00,Wunderground v.1.15,2013-12-01 12:50:00,
2013-12-01 05:00:00,39.5,33.5,30.18,West,280,0.0,0.0,79,0.00,,,0.00,Wunderground v.1.15,2013-12-01 13:00:00,
2013-12-01 05:10:00,39.2,33.2,30.18,West,280,0.0,0.0,79,0.00,,,0.00,Wunderground v.1.15,2013-12-01 13:10:00,
2013-12-01 05:20:00,39.1,33.1,30.19,West,280,0.0,0.0,79,0.00,,,0.00,Wunderground v.1.15,2013-12-01 13:20:00,
2013-12-01 05:30:00,38.9,33.3,30.19,West,280,0.0,0.0,80,0.00,,,0.00,Wunderground v.1.15,2013-12-01 13:30:00,
2013-12-01 05:40:00,39.1,33.5,30.19,West,280,0.0,0.0,80,0.00,,,0.00,Wunderground v.1.15,2013-12-01 13:40:00,
2013-12-01 05:50:00,38.9,33.6,30.19,West,280,0.0,0.0,81,0.00,,,0.00,Wunderground v.1.15,2013-12-01 13:50:00,
2013-12-01 06:00:00,38.6,33.6,30.20,West,280,0.0,0.0,82,0.00,,,0.00,Wunderground v.1.15,2013-12-01 14:00:00,
2013-12-01 06:10:00,38.5,33.5,30.20,West,280,0.0,0.0,82,0.00,,,0.00,Wunderground v.1.15,2013-12-01 14:10:00,
2013-12-01 06:20:00,38.3,33.3,30.20,West,280,0.0,0.0,82,0.00,,,0.00,Wunderground v.1.15,2013-12-01 14:20:00,
2013-12-01 06:30:00,38.3,33.3,30.21,West,280,0.0,0.0,82,0.00,,,0.00,Wunderground v.1.15,2013-12-01 14:30:00,
2013-12-01 06:40:00,38.2,33.2,30.21,West,280,0.0,0.0,82,0.00,,,0.00,Wunderground v.1.15,2013-12-01 14:40:00,
2013-12-01 06:50:00,38.0,33.0,30.20,West,280,0.0,0.0,82,0.00,,,0.00,Wunderground v.1.15,2013-12-01 14:50:00,
2013-12-01 07:00:00,37.9,32.9,30.22,West,280,0.0,0.0,82,0.00,,,0.00,Wunderground v.1.15,2013-12-01 15:00:00,
2013-12-01 07:10:00,37.6,32.6,30.22,West,280,0.0,0.0,82,0.00,,,0.00,Wunderground v.1.15,2013-12-01 15:10:00,
2013-12-01 07:20:00,37.5,32.5,30.22,West,280,0.0,0.0,82,0.00,,,0.00,Wunderground v.1.15,2013-12-01 15:20:00,
2013-12-01 07:30:00,37.3,32.3,30.23,West,280,0.0,0.0,82,0.00,,,0.00,Wunderground v.1.15,2013-12-01 15:30:00,
2013-12-01 07:40:00,37.5,32.5,30.23,West,280,0.0,0.0,82,0.00,,,0.00,Wunderground v.1.15,2013-12-01 15:40:00,
2013-12-01 07:50:00,37.8,32.8,30.23,West,280,0.0,0.0,82,0.00,,,0.00,Wunderground v.1.15,2013-12-01 15:50:00,
2013-12-01 08:01:00,39.1,34.7,30.23,West,280,0.0,0.0,84,0.00,,,0.00,Wunderground v.1.15,2013-12-01 16:01:00,
2013-12-01 08:10:00,40.6,36.1,30.23,West,280,0.0,0.0,84,0.00,,,0.00,Wunderground v.1.15,2013-12-01 16:10:00,
2013-12-01 08:20:00,43.5,39.6,30.23,West,280,0.0,0.0,86,0.00,,,0.00,Wunderground v.1.15,2013-12-01 16:20:00,
2013-12-01 08:30:00,45.2,41.0,30.24,West,280,0.0,0.0,85,0.00,,,0.00,Wunderground v.1.15,2013-12-01 16:30:00,
2013-12-01 08:40:00,47.1,42.2,30.24,West,280,0.0,0.0,83,0.00,,,0.00,Wunderground v.1.15,2013-12-01 16:40:00,
2013-12-01 08:50:00,48.8,42.6,30.23,West,280,0.0,0.0,79,0.00,,,0.00,Wunderground v.1.15,2013-12-01 16:50:00,
2013-12-01 09:00:00,49.8,41.8,30.24,West,280,0.0,0.0,74,0.00,,,0.00,Wunderground v.1.15,2013-12-01 17:00:00,
2013-12-01 09:10:00,50.5,41.8,30.24,West,280,0.0,0.0,72,0.00,,,0.00,Wunderground v.1.15,2013-12-01 17:10:00,
2013-12-01 09:20:00,51.7,41.5,30.25,West,280,0.0,0.0,68,0.00,,,0.00,Wunderground v.1.15,2013-12-01 17:20:00,
2013-12-01 09:30:00,52.8,41.7,30.25,West,280,0.0,0.0,66,0.00,,,0.00,Wunderground v.1.15,2013-12-01 17:30:00,
2013-12-01 09:40:00,54.1,41.4,30.25,West,280,0.0,0.0,62,0.00,,,0.00,Wunderground v.1.15,2013-12-01 17:40:00,
2013-12-01 09:50:00,55.7,41.6,30.25,West,280,0.0,0.0,59,0.00,,,0.00,Wunderground v.1.15,2013-12-01 17:50:00,
2013-12-01 10:00:00,56.6,42.0,30.25,West,280,0.0,0.0,58,0.00,,,0.00,Wunderground v.1.15,2013-12-01 18:00:00,
2013-12-01 10:10:00,59.2,42.6,30.25,West,280,0.0,0.0,54,0.00,,,0.00,Wunderground v.1.15,2013-12-01 18:10:00,
2013-12-01 10:20:00,57.6,41.1,30.26,West,280,0.0,0.0,54,0.00,,,0.00,Wunderground v.1.15,2013-12-01 18:20:00,
2013-12-01 10:30:00,59.5,40.8,30.25,West,280,0.0,0.0,50,0.00,,,0.00,Wunderground v.1.15,2013-12-01 18:30:00,
2013-12-01 10:40:00,59.0,39.9,30.25,West,280,0.0,0.0,49,0.00,,,0.00,Wunderground v.1.15,2013-12-01 18:40:00,
2013-12-01 10:50:00,61.8,41.3,30.24,West,280,0.0,0.0,47,0.00,,,0.00,Wunderground v.1.15,2013-12-01 18:50:00,
2013-12-01 11:00:00,60.9,43.1,30.24,West,280,0.0,0.0,52,0.00,,,0.00,Wunderground v.1.15,2013-12-01 19:00:00,
2013-12-01 11:10:00,62.4,40.8,30.24,West,280,0.0,0.0,45,0.00,,,0.00,Wunderground v.1.15,2013-12-01 19:10:00,
2013-12-01 11:20:00,65.0,41.9,30.23,West,280,0.0,0.0,43,0.00,,,0.00,Wunderground v.1.15,2013-12-01 19:20:00,
2013-12-01 11:30:00,65.2,41.5,30.22,West,280,0.0,0.0,42,0.00,,,0.00,Wunderground v.1.15,2013-12-01 19:30:00,
2013-12-01 11:40:00,64.3,41.3,30.22,West,280,0.0,0.0,43,0.00,,,0.00,Wunderground v.1.15,2013-12-01 19:40:00,
2013-12-01 11:50:00,66.6,41.5,30.22,West,280,0.0,0.0,40,0.00,,,0.00,Wunderground v.1.15,2013-12-01 19:50:00,
2013-12-01 12:00:00,64.8,40.5,30.21,West,280,0.0,1.0,41,0.00,,,0.00,Wunderground v.1.15,2013-12-01 20:00:00,
2013-12-01 12:10:00,66.4,40.0,30.21,West,280,0.0,0.0,38,0.00,,,0.00,Wunderground v.1.15,2013-12-01 20:10:00,
2013-12-01 12:20:00,68.1,41.5,30.21,West,280,0.0,0.0,38,0.00,,,0.00,Wunderground v.1.15,2013-12-01 20:20:00,
2013-12-01 12:30:00,66.0,41.0,30.20,West,280,0.0,0.0,40,0.00,,,0.00,Wunderground v.1.15,2013-12-01 20:30:00,
2013-12-01 12:40:00,69.9,41.0,30.20,West,280,0.0,0.0,35,0.00,,,0.00,Wunderground v.1.15,2013-12-01 20:40:00,
2013-12-01 12:50:00,69.1,41.0,30.21,West,280,0.0,0.0,36,0.00,,,0.00,Wunderground v.1.15,2013-12-01 20:50:00,
2013-12-01 13:00:00,70.8,41.0,30.20,West,280,0.0,0.0,34,0.00,,,0.00,Wunderground v.1.15,2013-12-01 21:00:00,
2013-12-01 13:10:00,71.6,41.0,30.20,West,280,0.0,0.0,33,0.00,,,0.00,Wunderground v.1.15,2013-12-01 21:10:00,
2013-12-01 13:20:00,71.5,40.9,30.19,West,280,0.0,0.0,33,0.00,,,0.00,Wunderground v.1.15,2013-12-01 21:20:00,
2013-12-01 13:30:00,71.8,41.1,30.18,West,280,0.0,0.0,33,0.00,,,0.00,Wunderground v.1.15,2013-12-01 21:30:00,
2013-12-01 13:40:00,70.1,40.4,30.18,West,280,0.0,0.0,34,0.00,,,0.00,Wunderground v.1.15,2013-12-01 21:40:00,
2013-12-01 13:50:00,66.4,40.0,30.17,West,280,0.0,1.0,38,0.00,,,0.00,Wunderground v.1.15,2013-12-01 21:50:00,
2013-12-01 14:00:00,68.9,39.4,30.16,West,280,0.0,0.0,34,0.00,,,0.00,Wunderground v.1.15,2013-12-01 22:00:00,
2013-12-01 14:10:00,70.4,39.9,30.16,West,280,0.0,0.0,33,0.00,,,0.00,Wunderground v.1.15,2013-12-01 22:10:00,
2013-12-01 14:20:00,72.0,39.7,30.16,West,280,0.0,0.0,31,0.00,,,0.00,Wunderground v.1.15,2013-12-01 22:20:00,
2013-12-01 14:30:00,73.0,38.9,30.15,West,280,0.0,0.0,29,0.00,,,0.00,Wunderground v.1.15,2013-12-01 22:30:00,
2013-12-01 14:40:00,72.8,39.5,30.15,West,280,0.0,0.0,30,0.00,,,0.00,Wunderground v.1.15,2013-12-01 22:40:00,
2013-12-01 14:50:00,73.2,39.9,30.15,West,280,0.0,0.0,30,0.00,,,0.00,Wunderground v.1.15,2013-12-01 22:50:00,
2013-12-01 15:00:00,72.7,39.5,30.14,West,280,0.0,0.0,30,0.00,,,0.00,Wunderground v.1.15,2013-12-01 23:00:00,
2013-12-01 15:10:00,71.3,39.1,30.14,West,280,0.0,0.0,31,0.00,,,0.00,Wunderground v.1.15,2013-12-01 23:10:00,
2013-12-01 15:20:00,71.6,39.3,30.14,West,280,0.0,0.0,31,0.00,,,0.00,Wunderground v.1.15,2013-12-01 23:20:00,
2013-12-01 15:30:00,70.9,39.6,30.15,West,280,0.0,0.0,32,0.00,,,0.00,Wunderground v.1.15,2013-12-01 23:30:00,
2013-12-01 15:40:00,70.9,39.6,30.15,West,280,0.0,0.0,32,0.00,,,0.00,Wunderground v.1.15,2013-12-01 23:40:00,
2013-12-01 15:50:00,70.3,39.8,30.14,West,280,0.0,0.0,33,0.00,,,0.00,Wunderground v.1.15,2013-12-01 23:50:00,
2013-12-01 16:00:00,69.4,40.5,30.14,West,280,0.0,0.0,35,0.00,,,0.00,Wunderground v.1.15,2013-12-02 00:00:00,
2013-12-01 16:10:00,68.6,40.6,30.14,West,280,0.0,0.0,36,0.00,,,0.00,Wunderground v.1.15,2013-12-02 00:10:00,
2013-12-01 16:20:00,67.8,41.3,30.14,West,280,0.0,0.0,38,0.00,,,0.00,Wunderground v.1.15,2013-12-02 00:20:00,
2013-12-01 16:30:00,66.6,40.9,30.13,West,280,0.0,0.0,39,0.00,,,0.00,Wunderground v.1.15,2013-12-02 00:30:00,
2013-12-01 16:40:00,66.4,40.7,30.13,West,280,0.0,0.0,39,0.00,,,0.00,Wunderground v.1.15,2013-12-02 00:40:00,
2013-12-01 16:50:00,66.0,41.0,30.12,West,280,0.0,0.0,40,0.00,,,0.00,Wunderground v.1.15,2013-12-02 00:50:00,
2013-12-01 17:00:00,64.8,40.5,30.12,West,280,0.0,0.0,41,0.00,,,0.00,Wunderground v.1.15,2013-12-02 01:00:00,
2013-12-01 17:10:00,63.5,40.0,30.12,West,280,0.0,0.0,42,0.00,,,0.00,Wunderground v.1.15,2013-12-02 01:10:00,
2013-12-01 17:20:00,62.3,39.5,30.13,West,280,0.0,0.0,43,0.00,,,0.00,Wunderground v.1.15,2013-12-02 01:20:00,
2013-12-01 17:30:00,61.5,39.9,30.13,West,280,0.0,0.0,45,0.00,,,0.00,Wunderground v.1.15,2013-12-02 01:30:00,
2013-12-01 17:40:00,60.5,39.6,30.13,West,280,0.0,0.0,46,0.00,,,0.00,Wunderground v.1.15,2013-12-02 01:40:00,
2013-12-01 17:50:00,59.8,39.0,30.13,West,280,0.0,0.0,46,0.00,,,0.00,Wunderground v.1.15,2013-12-02 01:50:00,
2013-12-01 18:00:00,58.9,39.2,30.13,West,280,0.0,0.0,48,0.00,,,0.00,Wunderground v.1.15,2013-12-02 02:00:00,
2013-12-01 18:10:00,57.6,38.6,30.13,West,280,0.0,0.0,49,0.00,,,0.00,Wunderground v.1.15,2013-12-02 02:10:00,
2013-12-01 18:20:00,56.6,39.2,30.13,West,280,0.0,0.0,52,0.00,,,0.00,Wunderground v.1.15,2013-12-02 02:20:00,
2013-12-01 18:30:00,55.7,38.3,30.13,West,280,0.0,0.0,52,0.00,,,0.00,Wunderground v.1.15,2013-12-02 02:30:00,
2013-12-01 18:40:00,55.0,38.6,30.13,West,280,0.0,0.0,54,0.00,,,0.00,Wunderground v.1.15,2013-12-02 02:40:00,
2013-12-01 18:50:00,54.4,38.6,30.13,West,280,0.0,0.0,55,0.00,,,0.00,Wunderground v.1.15,2013-12-02 02:50:00,
2013-12-01 19:00:00,53.8,38.0,30.13,West,280,0.0,0.0,55,0.00,,,0.00,Wunderground v.1.15,2013-12-02 03:00:00,
2013-12-01 19:10:00,53.2,37.9,30.13,West,280,0.0,0.0,56,0.00,,,0.00,Wunderground v.1.15,2013-12-02 03:10:00,
2013-12-01 19:20:00,52.6,37.3,30.13,West,280,0.0,0.0,56,0.00,,,0.00,Wunderground v.1.15,2013-12-02 03:20:00,
2013-12-01 19:30:00,51.7,36.9,30.13,West,280,0.0,0.0,57,0.00,,,0.00,Wunderground v.1.15,2013-12-02 03:30:00,
2013-12-01 19:40:00,51.0,37.2,30.13,West,280,0.0,0.0,59,0.00,,,0.00,Wunderground v.1.15,2013-12-02 03:40:00,
2013-12-01 19:50:00,50.1,37.2,30.13,West,280,0.0,0.0,61,0.00,,,0.00,Wunderground v.1.15,2013-12-02 03:50:00,
2013-12-01 20:01:00,49.4,36.9,30.14,West,280,0.0,0.0,62,0.00,,,0.00,Wunderground v.1.15,2013-12-02 04:01:00,
2013-12-01 20:10:00,49.1,37.0,30.14,West,280,0.0,0.0,63,0.00,,,0.00,Wunderground v.1.15,2013-12-02 04:10:00,
2013-12-01 20:20:00,48.8,37.9,30.13,West,280,0.0,0.0,66,0.00,,,0.00,Wunderground v.1.15,2013-12-02 04:20:00,
2013-12-01 20:30:00,48.3,38.2,30.14,West,280,0.0,0.0,68,0.00,,,0.00,Wunderground v.1.15,2013-12-02 04:30:00,
2013-12-01 20:40:00,48.2,38.5,30.14,West,280,0.0,0.0,69,0.00,,,0.00,Wunderground v.1.15,2013-12-02 04:40:00,
2013-12-01 20:50:00,47.9,38.6,30.14,West,280,0.0,0.0,70,0.00,,,0.00,Wunderground v.1.15,2013-12-02 04:50:00,
2013-12-01 21:00:00,47.6,38.3,30.14,West,280,0.0,0.0,70,0.00,,,0.00,Wunderground v.1.15,2013-12-02 05:00:00,
2013-12-01 21:10:00,47.3,38.4,30.14,West,280,0.0,0.0,71,0.00,,,0.00,Wunderground v.1.15,2013-12-02 05:10:00,
2013-12-01 21:20:00,47.1,38.5,30.14,West,280,0.0,0.0,72,0.00,,,0.00,Wunderground v.1.15,2013-12-02 05:20:00,
2013-12-01 21:30:00,46.8,38.2,30.14,West,280,0.0,0.0,72,0.00,,,0.00,Wunderground v.1.15,2013-12-02 05:30:00,
2013-12-01 21:40:00,46.7,38.5,30.14,West,280,0.0,0.0,73,0.00,,,0.00,Wunderground v.1.15,2013-12-02 05:40:00,
2013-12-01 21:50:00,46.4,38.2,30.14,West,280,0.0,0.0,73,0.00,,,0.00,Wunderground v.1.15,2013-12-02 05:50:00,
2013-12-01 22:01:00,46.2,38.4,30.14,West,280,0.0,0.0,74,0.00,,,0.00,Wunderground v.1.15,2013-12-02 06:01:00,
2013-12-01 22:10:00,46.1,38.3,30.14,West,280,0.0,0.0,74,0.00,,,0.00,Wunderground v.1.15,2013-12-02 06:10:00,
2013-12-01 22:20:00,46.1,38.6,30.14,West,280,0.0,0.0,75,0.00,,,0.00,Wunderground v.1.15,2013-12-02 06:20:00,
2013-12-01 22:30:00,46.0,38.5,30.14,West,280,0.0,0.0,75,0.00,,,0.00,Wunderground v.1.15,2013-12-02 06:30:00,
2013-12-01 22:40:00,46.0,38.9,30.14,West,280,0.0,0.0,76,0.00,,,0.00,Wunderground v.1.15,2013-12-02 06:40:00,
2013-12-01 22:50:00,46.0,38.9,30.15,West,280,0.0,0.0,76,0.00,,,0.00,Wunderground v.1.15,2013-12-02 06:50:00,
2013-12-01 23:00:00,46.0,38.9,30.15,West,280,0.0,0.0,76,0.00,,,0.00,Wunderground v.1.15,2013-12-02 07:00:00,
2013-12-01 23:10:00,46.0,38.9,30.15,West,280,0.0,0.0,76,0.00,,,0.00,Wunderground v.1.15,2013-12-02 07:10:00,
2013-12-01 23:20:00,45.8,38.7,30.15,West,280,0.0,0.0,76,0.00,,,0.00,Wunderground v.1.15,2013-12-02 07:20:00,
2013-12-01 23:30:00,45.8,38.7,30.14,West,280,0.0,0.0,76,0.00,,,0.00,Wunderground v.1.15,2013-12-02 07:30:00,
2013-12-01 23:40:00,45.7,38.6,30.14,West,280,0.0,0.0,76,0.00,,,0.00,Wunderground v.1.15,2013-12-02 07:40:00,
2013-12-01 23:50:00,45.2,37.7,30.14,West,280,0.0,0.0,75,0.00,,,0.00,Wunderground v.1.15,2013-12-02 07:50:00,